sat.trackr.live / text

‹ back to catalog

STARLINK-2402

NORAD 47819 · 2021-018AJ

PAYLOAD ACTIVE UNKNOWN

§ Identity

Operator
Country
US
Launch date
2021-03-11
Launch site
AFETR
Launch vehicle
Mass (kg)
RCS (m²)

Purposes: comms

External: N2YO · Heavens-Above · Gunter

§ Orbital elements

Epoch: 2026-09-20T00:32:28.485024Z

Period
94.01 min
Inclination
53.1593°
Eccentricity
0.0001124
Mean motion
15.31697801 rev/d
Perigee alt
470.0 km
Apogee alt
471.5 km
Semi-major
6,848.9 km
B*
-2.6861e-5
RAAN
58.6504°
Arg perigee
109.1237°
Mean anomaly
250.9886°
Rev number
30,656

§ Raw data

STARLINK-24021 47819U 21018AJ  26263.02255191 -.00001198  00000+0 -26861-4 0  99922 47819  53.1593  58.6504 0001124 109.1237 250.9886 15.31697801306565

JSON: /api/v1/satellites/47819 · /tle

For live sub-satellite position, see the globe view (requires WebGL).

§ Visibility from observer

Set your observer location to see the next 7 days of passes ≥ 10°. The values pass through the URL so the page stays shareable.

No JS? Fill the form by hand. The geolocation button needs JavaScript.